{"data":{"norad_id":54093,"epoch":"2026-09-20T22:00:03.000096Z","epoch_age_seconds":53203,"freshness":"FRESH","line1":"1 54093U 22136AU  26263.91670139  .00002610  00000+0  13909-3 0  9993","line2":"2 54093  53.1604 176.2980 0002173  75.2556  63.6617 15.18775585  5699","mean_motion":15.18775585,"eccentricity":0.0002173,"inclination_deg":53.1604,"raan_deg":176.298,"arg_perigee_deg":75.2556,"mean_anomaly_deg":63.6617,"bstar":0.00013909,"rev_number":569,"period_min":94.813217582768,"perigee_km":508.04326698658,"apogee_km":511.03665139304,"semimajor_km":6887.6769591898,"source":"CELESTRAK","updated_at":"2026-09-21T09:00:33.083927Z"}}